• In Hungary
  • List of Countries
  • For 7 days
  • Water Temperature
  • Satellite Maps
  • Weather Map
  • News
  • Weather Widgets
  • user-avatar
    Login

    Hourly Weather Chumaky

    Today, 18 December, Monday

    Time Temperature Precipitation Wind Pressure Humidity
    00:00 +5°C° 0 mm 6 mps 748 mmHg 83%
    01:00 +4°C° 0.1 mm 6 mps 748 mmHg 84%
    02:00 +4°C° 0.1 mm 6 mps 748 mmHg 84%
    03:00 +4°C° 0.1 mm 7 mps 748 mmHg 85%
    04:00 +4°C° 0.1 mm 7 mps 747 mmHg 85%
    05:00 +4°C° 0.1 mm 7 mps 747 mmHg 86%
    06:00 +4°C° 0.1 mm 6 mps 747 mmHg 87%
    07:00 +4°C° 0.2 mm 7 mps 747 mmHg 87%
    08:00 +4°C° 0.2 mm 7 mps 746 mmHg 87%
    09:00 +4°C° 0.2 mm 7 mps 746 mmHg 87%
    10:00 +5°C° 0.4 mm 7 mps 746 mmHg 85%
    11:00 +5°C° 0.4 mm 8 mps 746 mmHg 83%
    12:00 +5°C° 0.4 mm 8 mps 746 mmHg 81%
    13:00 +6°C° 0.2 mm 7 mps 746 mmHg 81%
    14:00 +6°C° 0.2 mm 7 mps 746 mmHg 81%
    15:00 +6°C° 0.2 mm 7 mps 746 mmHg 82%
    16:00 +7°C° 0 mm 6 mps 746 mmHg 83%
    17:00 +7°C° 0 mm 6 mps 747 mmHg 84%
    18:00 +6°C° 0 mm 5 mps 747 mmHg 86%
    19:00 +6°C° 0 mm 5 mps 747 mmHg 84%
    20:00 +5°C° 0 mm 5 mps 748 mmHg 83%
    21:00 +5°C° 0 mm 4 mps 748 mmHg 81%
    22:00 +4°C° 0 mm 4 mps 748 mmHg 81%
    23:00 +4°C° 0 mm 4 mps 749 mmHg 80%

    Tomorrow, 19 December, Tuesday

    Time Temperature Precipitation Wind Pressure Humidity
    00:00 +4°C° 0 mm 4 mps 749 mmHg 80%
    01:00 +3°C° 0 mm 4 mps 749 mmHg 80%
    02:00 +3°C° 0 mm 3 mps 749 mmHg 81%
    03:00 +3°C° 0 mm 3 mps 750 mmHg 82%
    04:00 +2°C° 0 mm 3 mps 750 mmHg 82%
    05:00 +2°C° 0 mm 3 mps 750 mmHg 83%
    06:00 +2°C° 0 mm 3 mps 750 mmHg 83%
    07:00 +2°C° 0 mm 3 mps 751 mmHg 83%
    08:00 +2°C° 0 mm 2 mps 751 mmHg 82%
    09:00 +2°C° 0 mm 2 mps 751 mmHg 82%
    10:00 +3°C° 0 mm 2 mps 752 mmHg 78%
    11:00 +2°C° 0 mm 3 mps 752 mmHg 74%
    12:00 +2°C° 0 mm 3 mps 753 mmHg 69%
    13:00 +2°C° 0 mm 3 mps 753 mmHg 67%
    14:00 +3°C° 0 mm 3 mps 753 mmHg 65%
    15:00 +3°C° 0 mm 3 mps 753 mmHg 63%
    16:00 +2°C° 0 mm 3 mps 753 mmHg 67%
    17:00 +2°C° 0 mm 3 mps 753 mmHg 70%
    18:00 +2°C° 0 mm 2 mps 754 mmHg 73%
    19:00 +2°C° 0 mm 2 mps 754 mmHg 73%
    20:00 +2°C° 0 mm 2 mps 754 mmHg 73%
    21:00 +2°C° 0 mm 2 mps 754 mmHg 73%
    22:00 +1°C° 0 mm 2 mps 754 mmHg 75%
    23:00 +1°C° 0 mm 2 mps 755 mmHg 77%

    Day after tomorrow, 20 December, Wednesday

    Time Temperature Precipitation Wind Pressure Humidity
    00:00 +1°C° 0 mm 2 mps 755 mmHg 79%
    01:00 -1°C° 0 mm 2 mps 755 mmHg 79%
    02:00 -1°C° 0 mm 2 mps 755 mmHg 79%
    03:00 -1°C° 0 mm 2 mps 755 mmHg 80%
    04:00 +1°C° 0 mm 1 mps 755 mmHg 80%
    05:00 +1°C° 0 mm 1 mps 756 mmHg 81%
    06:00 0°C° 0 mm 1 mps 756 mmHg 82%
    07:00 0°C° 0 mm 1 mps 756 mmHg 81%
    08:00 0°C° 0 mm 1 mps 757 mmHg 81%
    09:00 +1°C° 0 mm 1 mps 757 mmHg 80%
    10:00 +1°C° 0 mm 1 mps 757 mmHg 74%
    11:00 +2°C° 0 mm 1 mps 757 mmHg 69%
    12:00 +3°C° 0 mm 1 mps 757 mmHg 63%
    13:00 +3°C° 0 mm 1 mps 757 mmHg 61%
    14:00 +3°C° 0 mm 1 mps 757 mmHg 59%
    15:00 +4°C° 0 mm 1 mps 757 mmHg 57%
    16:00 +3°C° 0 mm 1 mps 757 mmHg 60%
    17:00 +1°C° 0 mm 0 mps 758 mmHg 63%
    18:00 +1°C° 0 mm 0 mps 758 mmHg 67%
    19:00 0°C° 0 mm 0 mps 758 mmHg 67%
    20:00 0°C° 0 mm 0 mps 758 mmHg 68%
    21:00 0°C° 0 mm 0 mps 758 mmHg 68%
    22:00 +1°C° 0 mm 1 mps 758 mmHg 69%
    23:00 +1°C° 0 mm 1 mps 758 mmHg 70%

    21 December, Thursday

    Time Temperature Precipitation Wind Pressure Humidity
    00:00 +1°C° 0 mm 1 mps 758 mmHg 71%
    01:00 +1°C° 0 mm 1 mps 758 mmHg 72%
    02:00 +1°C° 0 mm 1 mps 758 mmHg 72%
    03:00 +1°C° 0 mm 1 mps 758 mmHg 73%
    04:00 -2°C° 0 mm 2 mps 758 mmHg 74%
    05:00 -2°C° 0 mm 2 mps 758 mmHg 75%
    06:00 -2°C° 0 mm 2 mps 758 mmHg 76%
    07:00 -2°C° 0 mm 2 mps 758 mmHg 76%
    08:00 -2°C° 0 mm 2 mps 758 mmHg 76%
    09:00 -2°C° 0 mm 2 mps 758 mmHg 76%
    10:00 -1°C° 0 mm 2 mps 758 mmHg 72%
    11:00 +1°C° 0 mm 2 mps 758 mmHg 69%
    12:00 +1°C° 0 mm 2 mps 758 mmHg 65%
    13:00 0°C° 0 mm 3 mps 758 mmHg 64%
    14:00 +1°C° 0 mm 3 mps 758 mmHg 62%
    15:00 +1°C° 0 mm 3 mps 758 mmHg 61%
    16:00 0°C° 0 mm 3 mps 758 mmHg 65%
    17:00 -1°C° 0 mm 3 mps 758 mmHg 68%
    18:00 -2°C° 0 mm 2 mps 758 mmHg 72%
    19:00 -3°C° 0 mm 2 mps 758 mmHg 72%
    20:00 -3°C° 0 mm 2 mps 758 mmHg 71%
    21:00 -3°C° 0 mm 2 mps 758 mmHg 71%
    22:00 -3°C° 0 mm 2 mps 757 mmHg 70%
    23:00 -3°C° 0 mm 2 mps 757 mmHg 70%

    22 December, Friday

    Time Temperature Precipitation Wind Pressure Humidity
    00:00 -3°C° 0 mm 2 mps 757 mmHg 69%
    01:00 -3°C° 0 mm 2 mps 757 mmHg 69%
    02:00 -3°C° 0 mm 2 mps 756 mmHg 70%
    03:00 -4°C° 0 mm 2 mps 756 mmHg 70%
    04:00 -4°C° 0 mm 2 mps 756 mmHg 72%
    05:00 -4°C° 0 mm 2 mps 755 mmHg 73%
    06:00 -2°C° 0 mm 1 mps 755 mmHg 75%
    07:00 -2°C° 0 mm 1 mps 755 mmHg 76%
    08:00 -2°C° 0 mm 1 mps 755 mmHg 76%
    09:00 -2°C° 0 mm 1 mps 755 mmHg 77%
    10:00 -3°C° 0 mm 2 mps 754 mmHg 73%
    11:00 -2°C° 0 mm 2 mps 754 mmHg 69%
    12:00 -2°C° 0 mm 2 mps 754 mmHg 64%
    13:00 -1°C° 0 mm 2 mps 753 mmHg 64%
    14:00 -1°C° 0 mm 3 mps 753 mmHg 63%
    15:00 -1°C° 0 mm 3 mps 752 mmHg 62%
    16:00 -2°C° 0 mm 3 mps 752 mmHg 65%
    17:00 -2°C° 0 mm 2 mps 753 mmHg 68%
    18:00 -3°C° 0 mm 2 mps 753 mmHg 70%
    19:00 -3°C° 0 mm 2 mps 752 mmHg 72%
    20:00 -3°C° 0 mm 2 mps 752 mmHg 74%
    21:00 -3°C° 0 mm 2 mps 752 mmHg 76%
    22:00 -3°C° 0 mm 2 mps 751 mmHg 77%
    23:00 -4°C° 0 mm 3 mps 751 mmHg 78%

    23 December, Saturday

    Time Temperature Precipitation Wind Pressure Humidity
    00:00 -4°C° 0 mm 3 mps 751 mmHg 79%
    01:00 -4°C° 0 mm 3 mps 750 mmHg 81%
    02:00 -2°C° 0 mm 3 mps 750 mmHg 83%
    03:00 -3°C° 0 mm 4 mps 749 mmHg 85%
    04:00 -3°C° 0.1 mm 4 mps 749 mmHg 84%
    05:00 -2°C° 0.1 mm 4 mps 748 mmHg 84%
    06:00 -2°C° 0.1 mm 5 mps 747 mmHg 84%
    07:00 -2°C° 0.4 mm 5 mps 747 mmHg 86%
    08:00 -3°C° 0.4 mm 6 mps 746 mmHg 87%
    09:00 -3°C° 0.4 mm 6 mps 746 mmHg 88%
    10:00 -2°C° 0.3 mm 6 mps 745 mmHg 88%
    11:00 -1°C° 0.3 mm 5 mps 745 mmHg 87%
    12:00 -1°C° 0.3 mm 5 mps 744 mmHg 86%
    13:00 -1°C° 0.1 mm 4 mps 744 mmHg 87%
    14:00 -1°C° 0.1 mm 4 mps 744 mmHg 87%
    15:00 0°C° 0.1 mm 3 mps 743 mmHg 88%
    16:00 0°C° 0 mm 3 mps 744 mmHg 88%
    17:00 0°C° 0 mm 3 mps 744 mmHg 89%
    18:00 -2°C° 0 mm 4 mps 744 mmHg 90%
    19:00 -2°C° 0 mm 4 mps 744 mmHg 90%
    20:00 -3°C° 0 mm 4 mps 745 mmHg 90%
    21:00 -3°C° 0 mm 4 mps 745 mmHg 90%
    22:00 -3°C° 0 mm 4 mps 745 mmHg 90%
    23:00 -3°C° 0 mm 4 mps 745 mmHg 89%
    Show more